TimeEDT,TemperatureF,Dew PointF,Humidity,Sea Level PressureIn,VisibilityMPH,Wind Direction,Wind SpeedMPH,Gust SpeedMPH,PrecipitationIn,Events,Conditions,WindDirDegrees,DateUTC
12:53 AM,57.9,52.0,81,29.70,10.0,SW,9.2,-,0.02,,Mostly Cloudy,230,2013-10-07 04:53:00
1:53 AM,57.9,51.1,78,29.70,10.0,SW,6.9,-,0.01,,Overcast,220,2013-10-07 05:53:00
2:12 AM,57.2,53.6,88,29.71,10.0,SW,9.2,-,0.00,Rain,Light Rain,220,2013-10-07 06:12:00
2:34 AM,57.2,53.6,88,29.71,10.0,SW,10.4,-,0.00,,Overcast,230,2013-10-07 06:34:00
2:53 AM,57.0,50.0,77,29.70,10.0,WSW,12.7,21.9,0.00,,Overcast,240,2013-10-07 06:53:00
3:18 AM,55.4,48.2,77,29.72,10.0,WSW,12.7,-,0.00,,Overcast,240,2013-10-07 07:18:00
3:53 AM,54.0,46.0,75,29.71,10.0,WSW,11.5,-,0.00,,Overcast,250,2013-10-07 07:53:00
4:24 AM,53.6,46.4,77,29.73,10.0,SW,12.7,18.4,N/A,,Overcast,230,2013-10-07 08:24:00
4:53 AM,52.0,43.0,71,29.73,10.0,WSW,15.0,-,N/A,,Overcast,240,2013-10-07 08:53:00
5:18 AM,50.0,41.0,71,29.74,10.0,WSW,12.7,-,N/A,,Scattered Clouds,240,2013-10-07 09:18:00
5:53 AM,48.9,41.0,74,29.74,10.0,SW,9.2,-,N/A,,Clear,230,2013-10-07 09:53:00
6:53 AM,46.9,41.0,80,29.76,10.0,SW,9.2,-,N/A,,Clear,220,2013-10-07 10:53:00
7:53 AM,46.9,41.0,80,29.77,10.0,SW,11.5,-,N/A,,Clear,220,2013-10-07 11:53:00
8:53 AM,48.0,41.0,77,29.79,10.0,SW,10.4,-,N/A,,Mostly Cloudy,220,2013-10-07 12:53:00
9:53 AM,52.0,43.0,71,29.80,10.0,SW,13.8,-,N/A,,Clear,220,2013-10-07 13:53:00
10:53 AM,54.0,43.0,66,29.81,10.0,WSW,17.3,25.3,N/A,,Overcast,250,2013-10-07 14:53:00
11:53 AM,53.1,44.1,71,29.82,10.0,SW,12.7,-,0.00,,Overcast,230,2013-10-07 15:53:00
12:31 PM,57.2,44.6,63,29.83,10.0,WSW,17.3,-,N/A,,Overcast,240,2013-10-07 16:31:00
12:53 PM,59.0,46.0,62,29.82,10.0,WSW,18.4,-,N/A,,Mostly Cloudy,250,2013-10-07 16:53:00
1:00 PM,60.8,46.4,59,29.83,10.0,WSW,20.7,26.5,N/A,,Mostly Cloudy,240,2013-10-07 17:00:00
1:53 PM,60.1,45.0,57,29.83,10.0,West,19.6,-,N/A,,Overcast,260,2013-10-07 17:53:00
2:53 PM,60.1,45.0,57,29.84,10.0,WSW,16.1,-,N/A,,Overcast,250,2013-10-07 18:53:00
3:26 PM,57.2,46.4,67,29.88,10.0,WSW,21.9,29.9,0.00,Rain,Light Rain,250,2013-10-07 19:26:00
3:53 PM,61.0,48.9,64,29.89,10.0,WSW,15.0,-,0.00,,Overcast,250,2013-10-07 19:53:00
4:44 PM,60.8,48.2,63,29.91,10.0,West,12.7,-,N/A,,Scattered Clouds,260,2013-10-07 20:44:00
4:53 PM,60.1,48.9,67,29.91,10.0,WSW,11.5,-,N/A,,Scattered Clouds,250,2013-10-07 20:53:00
5:53 PM,62.1,46.0,56,29.93,10.0,West,12.7,-,N/A,,Clear,280,2013-10-07 21:53:00
6:53 PM,57.9,43.0,58,29.97,10.0,WNW,8.1,-,N/A,,Clear,300,2013-10-07 22:53:00
7:53 PM,52.0,43.0,71,30.01,10.0,West,5.8,-,N/A,,Clear,260,2013-10-07 23:53:00
8:53 PM,52.0,43.0,71,30.05,10.0,West,6.9,-,N/A,,Clear,260,2013-10-08 00:53:00
9:53 PM,51.1,43.0,74,30.08,10.0,West,6.9,-,N/A,,Clear,260,2013-10-08 01:53:00
10:53 PM,52.0,44.1,74,30.11,10.0,West,9.2,-,N/A,,Clear,270,2013-10-08 02:53:00
11:53 PM,48.0,41.0,77,30.13,10.0,WSW,4.6,-,N/A,,Clear,240,2013-10-08 03:53:00